Home   Weather   Bydgoszcz   Past weeks

Flag for Poland Past Weather in Bydgoszcz, Poland — Yesterday and Last 2 Weeks

Now
29 °F

Light freezing rain. Low clouds.


Feels Like: 29 °F
Forecast: 33 / 35 °F
Wind: 2 mph from Southwest

Location: Torun

Current Time: Jan 20, 2017 at 5:10:04 am

Latest Report: Jan 20, 2017 at 4:00 am


Visibility: 1 mi

Pressure: 30.51 "Hg

Humidity: 99%

Dew Point: 29 °F

Location of BydgoszczLocation

Past Weather in Bydgoszcz — Graph

°F

Bydgoszcz Temperature Yesterday

Maximum temperature yesterday: 27 °F (at 11:00 pm)
Minimum temperature yesterday: 19 °F (at 4:00 am)
Average temperature yesterday: 23 °F

High & Low Weather Summary for the Past Weeks

 TemperatureHumidityPressure
High38 °F (Jan 13, 3:00 pm)100% (Jan 17, 9:00 pm)30.76 "Hg (Jan 17, 9:00 pm)
Low0 °F (Jan 7, 3:00 am)41% (Jan 8, 2:00 pm)29.18 "Hg (Jan 13, 12:00 pm)
Average24 °F85%30.17 "Hg
* Reported Jan 5 3:00 am — Jan 20 3:00 am, Bydgoszcz, Weather by CustomWeather, © 2017

Note: Actual official high and low records may vary slightly from our data, if they occured in-between our weather recording intervals... More about our weather records

Advertising

Bydgoszcz Weather History for the Previous 24 Hours

Scroll right to see more
 ConditionsComfort  
Time TempWeatherWind HumidityBarometerVisibility
3:00 am
Fri, Jan 20
29 °FLight freezing rain. Low clouds.2 mph99%30.51 "Hg1 mi
2:00 am28 °FLight freezing rain. Low clouds.3 mph100%30.52 "Hg1 mi
1:00 am28 °FLight freezing rain. Low clouds.3 mph99%30.52 "Hg1 mi
12:00 am27 °FLight freezing rain. Low clouds.3 mph98%30.53 "Hg1 mi
11:00 pm
Thu, Jan 19
27 °FFog.3 mph95%30.55 "Hg2 mi
10:00 pm27 °FFog.2 mph94%30.56 "Hg2 mi
9:00 pm26 °FFog.3 mph93%30.56 "Hg2 mi
8:00 pm26 °FFog.2 mph90%30.57 "Hg2 mi
7:00 pm26 °FFog.3 mph90%30.57 "Hg2 mi
6:00 pm26 °FFog.3 mph91%30.58 "Hg2 mi
5:00 pm26 °FFog.3 mph90%30.58 "Hg2 mi
4:00 pm26 °FFog.3 mph92%30.59 "Hg2 mi
3:00 pm26 °FFog.3 mph86%30.61 "Hg2 mi
2:00 pm26 °FFog.3 mph87%30.61 "Hg2 mi
1:00 pm25 °FFog.3 mph86%30.63 "Hg2 mi
12:00 pm25 °FFog.5 mph88%30.65 "Hg2 mi
11:00 am24 °FFog.5 mph88%30.67 "Hg2 mi
10:00 am23 °FOvercast.5 mph90%30.67 "Hg2 mi
9:00 am22 °FLight snow. Low clouds.3 mph92%30.67 "Hg2 mi
8:00 am21 °FLight snow. Low clouds.3 mph94%30.66 "Hg1 mi
7:00 am20 °FFog.3 mph94%30.66 "Hg1 mi
6:00 am19 °FFog.3 mph95%30.67 "Hg1 mi
5:00 am19 °FFog.2 mph95%30.69 "Hg1 mi
Weather by CustomWeather, © 2017

See weather overviewHow to use our weather pages